Location: Shepherdstown, WV
(39.4326°N, 77.8042°W)
Time: 06:25:43
(UTC-04:00)

SR - Pass Details

Date: 05 August 2021
Orbit: 581 x 874 km, 66.7° (Epoch: 24 September)

Event Time Altitude Azimuth Distance (km) Brightness Sun altitude
Rises 08:11:27 0° 271° (W) 3,408 ? 20.9°
Reaches altitude 10° 08:16:21 10° 307° (NW) 2,415 ? 21.9°
Maximum altitude 08:17:40 11° 321° (NW) 2,343 ? 22.1°
Drops below altitude 10° 08:18:57 10° 335° (NNW) 2,377 ? 22.4°
Sets 08:23:37 0° 12° (NNE) 3,224 ? 23.3°
